Weather Roundup
Issued by NWS Corpus Christi, TX

Home | Current Version | Previous Version | Text Only | Print | Product List | Glossary On
Versions: 1 2 3 4 5 6 7 8 9 10 11 12 13 14 15 16 17 18 19 20 21 22 23 24 25 26 27 28 29 30 31 32 33 34 35 36 37 38 39 40 41 42 43 44 45 46 47 48 49 50
000
ASUS44 KCRP 250610
HRRCRP

SOUTH TEXAS REGIONAL WEATHER ROUNDUP
NATIONAL WEATHER SERVICE CORPUS CHRISTI TX
100 AM CDT SAT APR 25 2015


TXZ229>244-250700-
...CORPUS CHRISTI AREA OBSERVATIONS...

CITY           SKY/WX    TMP DP  RH WIND       PRES   REMARKS
CORPUS CHRISTI LGT RAIN  79  75  87 E12G24    29.73F FOG
NAS CORPUS CHR TSTM      76  75  97 SE32G38   29.71F FOG
ROCKPORT       LGT RAIN  77  74  90 SE15G23   29.76S FOG
KINGSVILLE NAS   N/A     79  78  97 SW10      29.76R FOG
ALICE          FAIR      79  76  90 E12       29.74F FOG
FALFURRIAS     MOCLDY    79  76  90 SE5       29.74R
$$

...VICTORIA AREA OBSERVATIONS...

CITY           SKY/WX    TMP DP  RH WIND       PRES   REMARKS
VICTORIA       MOCLDY    76  76 100 SW8       29.83R FOG
BEEVILLE       CLOUDY    76  76 100 E6        29.77F FOG
PLEASANTON     MOCLDY    75  73  96 CALM      29.73F FOG
SAN ANTONIO    MOCLDY    74  68  81 S9        29.78R
$$

...LAREDO AREA OBSERVATIONS...

CITY           SKY/WX    TMP DP  RH WIND       PRES   REMARKS
LAREDO         FAIR      80  76  87 E8        29.75R FOG
COTULLA        FAIR      73  68  84 E3        29.74S
DEL RIO        CLOUDY    74  72  93 CALM      29.78R FOG
MCALLEN        FAIR      76  67  73 SE10      29.75R
HEBBRONVILLE     N/A     79  76  91 E6        29.77R FOG
$$

...OTHER TEXAS OBSERVATIONS...

CITY           SKY/WX    TMP DP  RH WIND       PRES   REMARKS
BROWNSVILLE    CLOUDY    75  69  81 S5        29.80F
HOUSTON        CLOUDY    78  73  84 S9        29.76F
COL. STATION   FAIR      75  72  90 NE7       29.71F
AUSTIN         FAIR      74  73  97 SW7       29.74R
WACO           FAIR      66  63  90 CALM      29.71S
FORT WORTH     MOCLDY    60  60 100 S6        29.68S
WICHITA FALLS  FAIR      62  60  93 SW9       29.64F
LUBBOCK        FAIR      55  31  39 W12       29.79S
EL PASO        PTCLDY    65  28  24 W6        29.96R
$$

...MARINE OBSERVATIONS...

STATION/POSITION TIME  SKY/WX   TEMP    WIND        PRES    VSBY  WAVE   SWELL
                                AIR SEA DIR/SP/G                  HT/PER HT/PER
                 (UTC)          (F)     (DEG/KT/KT) (MB)    (MI)  (FT/S) (FT/S)
PORT ARANSAS     0600            76 78  130/ 20/ 22 1009.1F
BUOY 90 E PORT A 0550            76 75  250/  8/  8 1010.6R         3/ 6   3/ 6
BUOY 45 SE BAFFI 0550            76 75  240/ 10/ 12 1010.8R         3/ 6   2/ 6
BUOY 200 E PT IS 0550            80 78  160/ 14/ 14 1008.0F         2/ 6   2/ 6
BUOY 15 E GALVES 0550            74 74  220/  8/ 10 1009.4R         2/ 6   2/ 6
$$



USA.gov is the U.S. government's official web portal to all federal, state and local government web resources and services.